Theta_e
297 288 284 285 285 284 283 282 281 283 287 286 285 286 290 292 291 292 292 292 293 294 297 299 309 322 324 324 325 328 328 330 330 329 328 328 327 329 328 329 329 328 328 327
291 287 289 289 289 286 283 281 280 284 287 287 284 284 287 288 290 292 293 293 293 293 294 296 297 302 318 323 324 325 327 329 329 330 330 330 330 330 331 330 328 329 328 328
288 288 291 288 287 285 283 280 280 281 285 285 282 281 284 287 289 290 291 293 293 294 295 295 295 297 299 311 322 323 325 327 329 330 328 325 325 325 326 327 328 328 329 329
289 293 289 287 285 285 281 285 285 284 282 276 281 273 279 283 284 285 288 291 293 292 293 293 294 295 295 299 306 320 323 325 328 330 328 326 326 325 327 327 328 327 327 327
286 287 288 286 286 287 283 287 285 285 282 280 278 276 278 282 282 285 287 287 288 289 290 291 293 295 296 296 299 308 319 321 325 328 328 327 327 327 324 325 325 325 325 326
286 291 290 289 290 289 288 285 284 282 281 274 277 277 276 280 282 284 286 287 288 288 289 289 291 292 292 295 296 301 309 315 320 325 326 326 326 322 322 322 323 322 323 323
285 286 289 291 287 289 287 281 271 270 268 272 277 276 278 283 285 286 287 288 287 288 290 293 294 295 295 297 298 301 303 302 307 312 313 318 321 321 320 318 318 317 316 315
280 278 286 290 288 285 285 281 274 266 267 272 278 275 278 285 288 290 290 290 289 291 292 291 292 293 294 294 296 297 297 296 297 298 298 299 301 302 301 301 301 301 302 302
277 278 287 289 291 291 286 282 284 277 268 270 275 279 284 287 287 288 289 290 289 289 289 289 289 289 289 289 289 291 291 291 291 292 292 292 293 293 294 294 296 296 297 299
284 278 285 288 291 291 288 289 280 278 268 267 274 276 277 283 284 286 286 288 289 289 287 285 285 285 285 286 286 287 287 286 287 288 288 288 288 289 290 290 290 291 292 294
285 281 280 286 285 285 286 284 285 282 277 270 269 274 281 284 284 284 285 287 288 285 283 282 282 282 282 282 282 283 283 283 283 284 285 285 285 286 286 286 287 288 289 290
284 280 278 280 284 287 289 285 286 279 273 274 275 275 285 285 285 284 284 287 283 282 281 281 280 280 279 279 279 280 280 281 281 282 282 282 282 283 283 282 283 284 285 286
284 272 268 275 283 285 284 286 287 286 283 276 274 275 285 284 284 284 282 281 281 280 279 279 278 277 277 277 277 278 278 279 279 280 280 280 280 280 280 280 281 282 283 283
288 280 273 270 278 282 282 285 287 285 280 280 280 278 281 282 284 282 280 279 278 277 277 277 276 276 276 276 276 276 277 277 278 278 278 278 278 278 279 279 280 280 281 281
285 275 278 276 279 280 280 282 284 284 284 279 278 280 283 284 285 284 280 279 278 276 276 276 276 275 276 275 275 275 276 276 277 276 277 277 278 278 278 278 279 279 280 280
284 275 279 273 279 279 276 278 280 279 281 282 282 282 287 287 282 280 280 279 277 276 275 276 276 275 275 275 274 275 275 276 276 276 276 277 277 277 277 277 278 278 278 279
279 269 271 271 278 278 270 275 278 279 280 280 277 282 285 285 286 282 279 279 278 276 275 274 273 274 273 274 274 273 274 275 275 275 275 276 276 276 276 276 276 276 277 278
272 268 266 265 273 266 275 276 278 279 280 281 280 280 282 281 277 277 277 278 277 275 274 273 272 272 272 272 273 273 273 273 273 273 272 273 274 273 274 274 274 274 276 275
280 275 264 263 262 269 274 274 275 276 276 281 281 280 278 276 276 275 275 274 273 273 272 272 272 271 271 271 272 271 271 271 271 270 270 270 271 271 271 272 272 273 273 273
280 277 272 262 258 260 273 274 277 278 270 276 279 278 276 276 277 277 272 272 272 272 272 271 270 270 269 270 271 270 268 268 267 268 268 269 270 270 269 270 271 271 272 272
263 268 271 259 266 265 273 275 277 267 272 274 276 277 275 277 274 271 272 271 271 270 269 269 268 267 267 268 269 267 266 265 266 267 268 268 268 269 269 269 269 270 270 270
270 267 264 264 267 266 274 276 274 276 273 275 274 275 275 271 269 269 269 268 268 268 268 268 267 265 265 266 267 265 263 264 265 266 266 266 266 267 268 267 268 268 268 268
270 272 269 271 271 272 272 273 273 274 274 273 274 274 274 269 267 267 266 266 266 266 267 267 265 264 263 264 265 263 262 263 263 264 263 264 264 265 266 266 266 266 266 266
270 269 270 270 271 272 276 272 272 271 271 272 273 272 271 269 267 266 264 265 264 263 262 261 262 261 260 261 261 260 261 261 259 260 261 263 262 263 264 264 265 265 264 264
270 270 269 269 270 268 270 271 273 270 268 267 266 267 269 269 268 267 265 263 261 260 259 259 260 259 258 259 258 257 259 260 261 262 262 262 262 261 262 263 263 264 266 266
269 271 271 272 273 273 271 264 266 267 265 266 266 263 263 267 267 266 264 263 262 261 261 261 261 260 259 259 259 259 261 261 261 261 262 261 261 261 261 261 260 264 267 268
Wind_Speed
5 4 9 7 3 3 4 3 4 3 2 2 6 6 15 6 4 6 6 7 6 8 7 6 6 8 9 10 12 13 13 13 10 8 7 7 7 7 7 8 9 9 9 10
4 15 5 6 6 5 3 3 4 3 1 4 4 8 13 6 7 9 11 8 9 6 7 8 7 7 9 11 13 13 14 13 12 9 8 4 6 5 6 6 8 10 10 9
7 4 10 9 5 6 4 6 3 2 3 1 4 7 8 5 4 4 6 8 6 12 12 8 6 7 7 10 13 13 14 14 13 12 6 4 4 2 4 6 7 9 10 9
7 5 6 4 7 7 7 6 4 1 3 4 2 7 6 4 6 5 9 10 14 7 6 7 8 7 8 10 6 7 9 12 12 12 10 12 10 7 6 5 4 5 8 8
5 7 8 4 6 7 6 7 9 6 4 1 2 1 8 4 5 8 7 7 7 7 7 8 8 10 7 5 7 6 6 6 8 12 12 10 9 7 2 3 5 5 5 7
5 1 5 9 5 11 6 7 6 4 3 4 7 7 5 5 3 5 2 8 8 7 6 5 5 6 5 3 4 5 6 3 5 8 9 10 9 5 4 3 3 3 2 3
3 3 2 3 7 3 3 7 2 3 1 7 2 4 7 5 5 3 7 7 8 8 9 10 12 11 10 10 7 6 7 8 7 8 7 4 4 4 3 2 1 2 2 3
8 7 8 4 6 8 8 7 7 9 6 3 1 8 4 4 3 4 6 7 9 11 11 13 13 12 13 15 14 13 14 14 13 12 13 11 11 7 7 9 7 6 6 6
6 6 3 6 5 10 7 8 5 6 2 3 5 5 1 4 7 8 10 11 12 12 14 15 14 14 14 16 16 15 15 15 14 13 12 13 12 13 10 11 10 8 8 7
2 3 5 8 2 6 8 9 4 1 5 4 3 3 4 1 5 6 9 10 11 12 14 13 13 14 13 14 13 15 15 15 13 13 12 11 12 12 11 11 12 11 10 10
4 1 0 6 8 10 6 6 3 4 4 5 3 4 3 3 2 4 6 10 10 11 11 11 12 12 12 13 14 14 14 14 14 12 12 12 11 12 12 11 11 11 10 10
6 3 2 6 5 5 14 10 7 7 6 2 3 3 3 5 5 4 5 9 8 10 9 10 11 12 13 13 13 13 12 13 12 11 11 13 12 12 12 12 12 10 11 10
3 2 2 5 4 4 8 13 13 1 1 7 6 5 5 2 6 4 4 5 7 8 9 9 10 12 12 12 12 12 12 12 11 11 12 12 12 12 12 12 11 11 11 11
2 2 6 7 1 3 4 7 7 16 4 4 5 5 7 6 8 7 5 4 6 6 8 8 9 10 10 10 10 11 12 11 10 11 11 12 12 11 10 10 11 11 10 10
2 2 1 3 3 2 2 4 4 10 11 6 2 8 14 9 6 7 9 8 6 6 7 6 7 7 8 9 9 10 10 10 9 11 11 11 10 10 10 11 10 10 11 10
3 3 3 4 2 3 4 3 3 1 1 4 2 3 3 4 6 6 10 10 10 8 7 6 6 7 8 8 8 9 9 9 9 10 10 9 9 9 10 9 9 9 10 10
2 4 1 2 3 1 5 7 7 5 4 6 7 9 10 12 13 8 6 7 8 8 8 7 6 6 6 6 7 7 7 7 9 9 9 9 9 9 9 9 9 9 9 8
3 3 3 3 2 4 6 3 2 5 3 7 4 1 3 3 3 4 4 7 8 8 8 7 6 6 6 5 6 6 7 8 8 9 9 9 9 8 9 8 8 8 7 7
4 4 2 4 4 5 8 4 7 7 7 8 11 6 3 4 4 3 3 3 5 7 7 7 6 6 5 5 5 7 7 8 8 8 8 7 7 7 7 7 7 6 5 6
5 3 3 2 5 8 8 3 4 4 5 1 6 8 9 7 3 3 8 8 10 9 9 8 7 6 5 4 5 7 7 7 7 7 7 7 7 6 6 6 6 5 5 5
2 2 9 3 3 9 8 4 3 7 7 2 2 6 8 6 2 5 9 6 8 8 10 8 7 6 4 3 6 7 6 6 4 5 5 6 7 6 6 5 5 5 5 5
6 6 4 4 3 12 6 4 9 6 1 5 3 6 6 6 7 7 7 8 8 8 8 7 7 6 4 4 6 7 7 4 4 5 6 6 6 5 5 6 5 6 5 5
3 7 6 9 8 4 5 4 3 2 5 5 5 5 8 8 6 9 8 10 8 7 7 6 7 7 4 4 3 7 3 3 4 5 5 5 5 6 5 5 6 5 5 4
4 2 3 4 5 6 6 4 4 3 4 4 4 7 8 7 8 8 7 8 7 5 5 3 6 6 5 3 5 5 3 3 4 4 4 4 5 4 5 3 2 2 3 3
5 3 5 6 6 5 7 8 5 5 4 3 2 3 7 7 8 9 8 8 6 6 4 4 5 5 5 4 5 2 3 3 4 4 3 4 3 3 3 4 2 3 3 5
7 9 6 10 8 6 6 2 4 8 6 5 7 2 0 4 9 7 8 8 8 8 7 6 6 6 6 5 5 4 3 3 3 4 2 2 2 2 2 3 4 6 6 9
Wind_Direction
186 165 214 197 219 149 149 184 184 219 328 224 252 257 266 251 261 273 257 256 248 246 264 235 230 210 193 193 191 196 190 192 180 182 182 198 207 214 217 221 211 204 203 204
156 227 186 179 196 196 153 183 222 282 75 171 282 263 262 240 235 216 231 236 242 249 266 250 229 208 203 204 203 197 203 189 190 189 193 186 184 207 216 206 210 211 206 203
196 174 174 168 174 184 194 176 175 202 324 161 323 276 249 257 255 251 255 245 239 228 243 251 241 223 214 214 207 202 201 194 193 192 161 117 101 107 168 205 212 216 213 206
228 183 145 167 196 151 218 179 167 189 45 238 30 281 291 309 291 264 249 234 242 241 253 263 256 244 226 229 214 211 198 193 196 180 181 186 197 192 200 192 195 185 195 209
201 168 171 172 189 168 217 158 185 190 185 20 236 320 268 345 298 257 265 275 268 270 256 252 257 263 251 230 206 202 189 185 178 186 191 193 206 215 143 156 172 192 191 208
220 243 193 183 156 174 141 94 59 61 113 258 204 171 265 214 240 321 1 335 323 304 312 318 300 288 285 268 229 179 180 179 172 176 189 190 200 156 154 160 181 181 197 203
171 202 245 148 115 117 172 141 42 16 351 230 216 166 244 287 299 286 319 351 357 12 36 30 29 24 35 38 43 71 78 57 55 81 70 82 130 142 141 111 92 100 81 49
188 198 190 197 177 163 183 179 163 183 194 197 181 227 240 321 28 33 45 31 36 38 38 42 39 43 43 44 47 58 63 62 55 57 58 58 58 67 66 62 66 61 62 52
168 243 144 187 169 150 182 214 168 109 59 75 208 286 342 13 31 27 42 50 45 48 51 48 42 44 47 48 45 48 56 57 50 56 59 56 55 58 61 59 59 53 45 44
276 226 192 194 150 204 169 158 186 40 151 231 263 274 201 60 28 15 42 51 62 62 55 44 43 42 44 46 49 49 51 54 52 54 54 57 56 58 60 58 55 52 42 41
165 194 18 115 210 182 180 184 189 124 157 167 149 249 227 131 69 93 63 71 71 69 57 50 49 46 50 50 47 51 49 50 47 46 50 54 50 49 53 54 48 46 46 38
200 151 170 219 314 281 206 205 205 198 216 238 137 247 80 108 114 120 90 94 86 77 68 60 54 52 47 46 45 46 46 51 47 48 50 50 50 49 50 47 42 40 46 41
192 277 31 330 318 287 206 198 196 165 23 195 155 218 170 128 114 97 102 81 82 80 69 64 58 55 53 47 45 46 43 44 44 49 54 52 48 48 49 45 41 39 41 40
322 120 167 215 162 281 174 191 196 208 249 150 219 146 188 188 164 148 129 105 89 76 76 72 68 64 62 59 56 51 48 43 45 52 54 54 47 47 48 46 44 43 38 42
165 66 161 189 190 342 294 172 202 202 211 188 139 177 198 185 190 151 144 139 119 90 71 69 75 68 61 58 55 53 49 46 47 54 51 48 48 46 46 45 43 43 44 40
338 145 136 313 325 186 183 251 187 130 145 116 191 285 187 113 104 179 172 156 152 150 138 113 92 77 64 57 54 51 45 48 51 55 52 46 47 48 48 46 44 47 46 45
114 121 135 212 305 7 329 221 186 186 199 152 178 213 149 190 210 165 171 180 146 144 136 122 100 84 68 62 65 57 47 50 51 52 44 39 39 40 39 40 41 38 43 47
103 91 76 186 69 229 241 287 262 222 242 217 263 125 136 95 96 111 115 152 142 142 130 119 107 91 70 62 68 72 64 59 60 55 46 34 33 37 33 35 35 28 34 40
181 116 77 136 181 290 321 198 172 164 271 207 224 166 127 107 130 179 151 108 127 128 122 116 111 105 90 76 81 81 69 63 60 52 46 36 33 46 39 41 30 25 33 39
198 99 117 92 143 195 230 194 181 120 294 283 182 168 160 153 189 215 148 130 123 124 130 132 125 113 94 64 94 89 76 66 54 38 34 28 24 43 42 33 28 21 22 39
135 179 212 192 230 286 251 192 176 94 233 159 200 155 140 187 131 129 127 119 131 137 135 130 128 121 108 82 109 101 92 71 45 42 48 42 28 28 27 35 35 30 32 38
167 170 195 122 189 254 161 82 165 206 101 147 155 167 146 128 132 138 137 144 142 141 138 137 132 122 102 83 116 109 88 59 48 55 57 48 40 36 26 17 25 37 35 32
235 189 185 182 209 233 248 186 251 316 150 192 166 183 153 142 178 166 166 162 158 154 147 141 139 125 86 73 91 113 89 71 71 75 64 55 51 43 29 33 13 15 20 18
263 184 202 52 276 230 224 188 227 193 198 167 162 166 162 168 164 170 158 156 148 137 142 136 133 135 129 101 91 106 105 87 89 83 69 65 54 38 28 21 29 3 347 349
201 110 198 266 279 319 252 230 182 172 168 138 65 158 181 153 173 163 161 154 150 144 133 136 148 145 146 139 120 114 108 103 113 99 84 64 55 36 26 358 315 331 304 285
183 193 177 240 205 176 227 246 168 172 196 178 155 148 123 155 158 146 157 158 156 160 159 159 164 154 163 164 157 160 150 127 124 121 116 89 66 14 15 345 321 318 315 330